Date String (YYYY-MM-DD hh:mm:ss) UTC,Instrument flags,absolute air pressure of the measurement (hPa),sample flow rate (lpm),inlet stack bypass flow (lpm),air temperature of the measurement (°C),ambient temperature measured by the external sensor (°C),aerosol sample conditioner tube jacket temperature (°C),OPC LED temperature (°C),internal box temperature (°C),relative humidity of the measurement (%),span deviation,mass concentration of particles derived from Lorenz-Mie calculation of OPC scattering (μg/m³),mass concentration of particles derived from Lorenz-Mie calculation of OPC scattering (μg/m³),mass concentration of particles derived from Lorenz-Mie calculation of OPC scattering (μg/m³)
DateTimeUTC,F1_M11,P_M11,Q1_M11,Q2_M11,T1_M11,T2_M11,T3_M11,T4_M11,T5_M11,U1_M11,ZSPAN_M11,X2_M11,X0_M11,X1_M11
2023-10-22 22:00:00,SystemResetWarning,0823.9,4.99,000.00,028.2,025.5,000.0,036.7,029.8,16.0,0000.0,0005.20,0016.30,0003.58
2023-10-22 22:01:00,SystemResetWarning,0823.9,5.00,000.00,028.2,025.9,000.0,036.7,029.9,16.1,0000.0,0005.26,0017.80,0003.60
2023-10-22 22:02:00,SystemResetWarning,0823.9,5.00,000.00,028.3,026.3,000.0,036.7,030.0,16.0,0000.0,0005.29,0018.05,0003.62
2023-10-22 22:03:00,SystemResetWarning,0823.9,5.00,000.00,028.3,026.6,000.0,036.7,030.1,16.0,0000.0,0005.35,0018.91,0003.64
2023-10-22 22:04:00,SystemResetWarning,0823.9,4.99,000.00,028.3,026.9,000.0,036.7,030.1,16.0,0000.0,0005.35,0017.80,0003.66
2023-10-22 22:05:00,SystemResetWarning,0823.8,5.00,000.00,028.4,027.1,000.0,036.8,030.2,15.9,0000.0,0005.36,0017.40,0003.68
2023-10-22 22:06:00,SystemResetWarning,0823.9,5.00,000.00,028.5,027.3,000.0,036.8,030.3,15.8,0000.0,0005.36,0017.38,0003.69
2023-10-22 22:07:00,SystemResetWarning,0823.9,5.01,000.00,028.5,027.5,000.0,036.8,030.4,15.8,0000.0,0005.35,0017.24,0003.70
2023-10-22 22:08:00,SystemResetWarning,0823.8,4.99,000.00,028.5,026.7,000.0,036.8,030.4,15.8,0000.0,0005.37,0017.37,0003.71
2023-10-22 22:09:00,SystemResetWarning,0823.8,5.00,000.00,028.5,024.8,000.0,036.8,030.1,15.8,0000.0,0005.34,0017.50,0003.72
2023-10-22 22:10:00,SystemResetWarning,0823.8,5.02,000.00,028.4,024.2,000.0,036.7,030.0,16.0,0000.0,0005.41,0019.16,0003.77
2023-10-22 22:11:00,SystemResetWarning,0823.8,4.99,000.00,028.3,024.5,000.0,036.7,029.8,15.9,0000.0,0005.52,0019.81,0003.81
2023-10-22 22:12:00,SystemResetWarning,0823.8,4.99,000.00,028.2,024.9,000.0,036.7,029.7,15.9,0000.0,0005.53,0018.92,0003.82
2023-10-22 22:13:00,SystemResetWarning,0823.8,5.00,000.00,028.2,025.3,000.0,036.7,029.8,15.8,0000.0,0005.57,0019.31,0003.85
2023-10-22 22:14:00,SystemResetWarning,0823.9,5.02,000.00,028.2,025.8,000.0,036.7,029.9,15.7,0000.0,0005.54,0018.71,0003.89
2023-10-22 22:15:00,SystemResetWarning,0823.9,4.99,000.00,028.2,026.2,000.0,036.7,029.9,15.9,0000.0,0005.55,0018.82,0003.93
2023-10-22 22:16:00,SystemResetWarning,0824.0,4.99,000.00,028.3,026.5,000.0,036.7,030.0,15.9,0000.0,0005.63,0019.40,0003.96
2023-10-22 22:17:00,SystemResetWarning,0824.0,4.99,000.00,028.3,026.8,000.0,036.7,030.1,15.7,0000.0,0005.67,0020.49,0003.99
2023-10-22 22:18:00,SystemResetWarning,0823.9,5.00,000.00,028.4,027.0,000.0,036.7,030.2,15.6,0000.0,0005.67,0020.63,0004.01
2023-10-22 22:19:00,SystemResetWarning,0823.9,5.01,000.00,028.4,027.3,000.0,036.8,030.2,15.4,0000.0,0005.72,0020.98,0004.03
2023-10-22 22:20:00,SystemResetWarning,0823.9,5.01,000.00,028.5,027.4,000.0,036.8,030.3,15.2,0000.0,0005.77,0020.91,0004.07
2023-10-22 22:21:00,SystemResetWarning,0823.9,5.00,000.00,028.5,027.5,000.0,036.8,030.4,15.0,0000.0,0005.71,0019.96,0004.07
2023-10-22 22:22:00,SystemResetWarning,0823.9,4.98,000.00,028.5,026.4,000.0,036.8,030.3,15.0,0000.0,0005.65,0019.78,0004.05
2023-10-22 22:23:00,SystemResetWarning,0823.9,5.01,000.00,028.5,024.6,000.0,036.7,030.1,15.2,0000.0,0005.59,0018.13,0004.03
2023-10-22 22:24:00,SystemResetWarning,0823.9,5.01,000.00,028.4,024.2,000.0,036.7,029.9,15.0,0000.0,0005.52,0017.69,0003.99
2023-10-22 22:25:00,SystemResetWarning,0823.9,5.01,000.00,028.3,024.5,000.0,036.7,029.8,15.2,0000.0,0005.47,0017.82,0003.94
2023-10-22 22:26:00,SystemResetWarning,0823.9,5.00,000.00,028.2,024.9,000.0,036.7,029.7,15.3,0000.0,0005.50,0018.06,0003.89
2023-10-22 22:27:00,SystemResetWarning,0824.0,5.00,000.00,028.2,025.4,000.0,036.7,029.8,15.2,0000.0,0005.41,0017.28,0003.86
2023-10-22 22:28:00,SystemResetWarning,0824.0,5.00,000.00,028.2,025.8,000.0,036.7,029.9,15.2,0000.0,0005.40,0017.00,0003.85
2023-10-22 22:29:00,SystemResetWarning,0824.0,4.99,000.00,028.2,026.2,000.0,036.7,029.9,15.0,0000.0,0005.42,0017.57,0003.83
2023-10-22 22:30:00,SystemResetWarning,0824.0,5.00,000.00,028.3,026.5,000.0,036.7,030.0,14.9,0000.0,0005.40,0017.96,0003.80
2023-10-22 22:31:00,SystemResetWarning,0823.9,5.00,000.00,028.3,026.8,000.0,036.7,030.1,14.9,0000.0,0005.37,0018.06,0003.78
2023-10-22 22:32:00,SystemResetWarning,0823.9,5.00,000.00,028.4,027.0,000.0,036.7,030.2,15.0,0000.0,0005.42,0018.56,0003.77
2023-10-22 22:33:00,SystemResetWarning,0824.0,5.00,000.00,028.4,027.2,000.0,036.7,030.3,15.0,0000.0,0005.43,0018.85,0003.77
2023-10-22 22:34:00,SystemResetWarning,0823.9,5.00,000.00,028.5,027.4,000.0,036.8,030.3,15.0,0000.0,0005.46,0019.37,0003.77
2023-10-22 22:35:00,SystemResetWarning,0823.9,4.99,000.00,028.5,027.6,000.0,036.8,030.4,15.0,0000.0,0005.45,0019.18,0003.78
2023-10-22 22:36:00,SystemResetWarning,0823.9,4.99,000.00,028.6,027.2,000.0,036.8,030.4,15.0,0000.0,0005.45,0019.68,0003.78
2023-10-22 22:37:00,SystemResetWarning,0823.9,5.00,000.00,028.5,025.2,000.0,036.8,030.2,15.1,0000.0,0005.42,0019.34,0003.77
2023-10-22 22:38:00,SystemResetWarning,0823.9,5.00,000.00,028.4,024.2,000.0,036.7,030.0,15.1,0000.0,0005.49,0019.67,0003.76
2023-10-22 22:39:00,SystemResetWarning,0823.9,5.01,000.00,028.4,024.4,000.0,036.7,029.9,15.1,0000.0,0005.45,0019.57,0003.75
2023-10-22 22:40:00,SystemResetWarning,0823.8,5.01,000.00,028.3,024.7,000.0,036.7,029.7,15.2,0000.0,0005.40,0019.43,0003.76
2023-10-22 22:41:00,SystemResetWarning,0823.8,5.00,000.00,028.2,025.2,000.0,036.7,029.8,15.1,0000.0,0005.36,0019.69,0003.77
2023-10-22 22:42:00,SystemResetWarning,0823.9,5.00,000.00,028.2,025.6,000.0,036.7,029.8,15.1,0000.0,0005.34,0020.43,0003.77
2023-10-22 22:43:00,SystemResetWarning,0824.0,5.00,000.00,028.2,026.0,000.0,036.7,029.9,15.1,0000.0,0005.31,0019.41,0003.76
2023-10-22 22:44:00,SystemResetWarning,0824.0,5.00,000.00,028.3,026.4,000.0,036.7,030.0,15.0,0000.0,0005.30,0018.45,0003.76
2023-10-22 22:45:00,SystemResetWarning,0824.0,5.00,000.00,028.3,026.7,000.0,036.7,030.1,15.0,0000.0,0005.34,0018.40,0003.78
2023-10-22 22:46:00,SystemResetWarning,0824.0,5.00,000.00,028.4,026.9,000.0,036.7,030.2,15.0,0000.0,0005.35,0019.58,0003.79
2023-10-22 22:47:00,SystemResetWarning,0824.0,5.00,000.00,028.4,027.2,000.0,036.8,030.2,15.0,0000.0,0005.40,0019.57,0003.81
2023-10-22 22:48:00,SystemResetWarning,0824.0,5.00,000.00,028.5,027.4,000.0,036.8,030.3,15.0,0000.0,0005.39,0020.01,0003.82
2023-10-22 22:49:00,SystemResetWarning,0824.0,5.00,000.00,028.5,027.5,000.0,036.8,030.4,15.0,0000.0,0005.39,0019.95,0003.84
2023-10-22 22:50:00,SystemResetWarning,0824.0,4.99,000.00,028.6,027.5,000.0,036.8,030.4,14.9,0000.0,0005.37,0020.03,0003.84
2023-10-22 22:51:00,SystemResetWarning,0824.0,4.99,000.00,028.6,026.0,000.0,036.8,030.3,14.9,0000.0,0005.38,0019.78,0003.83
2023-10-22 22:52:00,SystemResetWarning,0824.0,5.00,000.00,028.5,024.3,000.0,036.7,030.1,14.9,0000.0,0005.38,0018.74,0003.83
2023-10-22 22:53:00,SystemResetWarning,0824.0,5.01,000.00,028.4,024.2,000.0,036.7,029.9,15.0,0000.0,0005.37,0017.42,0003.81
2023-10-22 22:54:00,SystemResetWarning,0824.0,5.02,000.00,028.3,024.5,000.0,036.7,029.7,15.2,0000.0,0005.39,0017.03,0003.79
2023-10-22 22:55:00,SystemResetWarning,0824.0,5.00,000.00,028.2,024.9,000.0,036.7,029.7,15.3,0000.0,0005.38,0017.32,0003.79
2023-10-22 22:56:00,SystemResetWarning,0824.0,5.00,000.00,028.2,025.4,000.0,036.7,029.8,15.4,0000.0,0005.34,0017.60,0003.77
2023-10-22 22:57:00,SystemResetWarning,0824.0,5.00,000.00,028.2,025.8,000.0,036.7,029.9,15.4,0000.0,0005.30,0016.64,0003.76
2023-10-22 22:58:00,SystemResetWarning,0824.0,4.99,000.00,028.3,026.2,000.0,036.7,030.0,15.3,0000.0,0005.26,0015.64,0003.74
2023-10-22 22:59:00,SystemResetWarning,0824.0,5.00,000.00,028.3,026.5,000.0,036.7,030.0,15.3,0000.0,0005.25,0015.58,0003.73
